Time,TemperatureF,DewpointF,PressureIn,WindDirection,WindDirectionDegrees,WindSpeedMPH,WindSpeedGustMPH,Humidity,HourlyPrecipIn,Conditions,Clouds,dailyrainin,SoftwareType,DateUTC
2013-03-19 00:02:00,11.0,8.0,29.84,North,358,7.0,16.0,88,0.00,,,0.00,,2013-03-19 05:02:00,
2013-03-19 00:12:00,11.0,8.0,29.84,North,358,7.0,16.0,88,0.00,,,0.00,,2013-03-19 05:12:00,
2013-03-19 00:22:00,11.0,8.0,29.85,NW,319,6.0,12.0,89,0.00,,,0.00,,2013-03-19 05:22:00,
2013-03-19 00:32:00,10.0,7.0,29.85,NNW,341,5.0,15.0,89,0.00,,,0.00,,2013-03-19 05:32:00,
2013-03-19 00:42:00,10.0,7.0,29.85,NNW,341,5.0,15.0,89,0.00,,,0.00,,2013-03-19 05:42:00,
2013-03-19 00:52:00,9.0,6.0,29.86,NW,312,16.0,19.0,89,0.00,,,0.00,,2013-03-19 05:52:00,
2013-03-19 01:02:00,9.0,6.0,29.86,North,358,6.0,15.0,89,0.00,,,0.00,,2013-03-19 06:02:00,
2013-03-19 01:12:00,9.0,6.0,29.86,North,358,6.0,15.0,89,0.00,,,0.00,,2013-03-19 06:12:00,
2013-03-19 01:22:00,9.0,6.0,29.86,North,8,6.0,14.0,89,0.00,,,0.00,,2013-03-19 06:22:00,
2013-03-19 01:32:00,9.0,7.0,29.87,NW,322,6.0,13.0,90,0.00,,,0.00,,2013-03-19 06:32:00,
2013-03-19 01:42:00,9.0,7.0,29.87,NW,322,6.0,13.0,90,0.00,,,0.00,,2013-03-19 06:42:00,
2013-03-19 01:52:00,8.0,6.0,29.87,NNE,26,6.0,14.0,90,0.00,,,0.00,,2013-03-19 06:52:00,
2013-03-19 02:02:00,8.0,6.0,29.88,NNW,341,7.0,16.0,90,0.00,,,0.00,,2013-03-19 07:02:00,
2013-03-19 02:12:00,8.0,6.0,29.88,NNW,341,7.0,16.0,90,0.00,,,0.00,,2013-03-19 07:12:00,
2013-03-19 02:21:00,8.0,6.0,29.88,North,358,0.0,12.0,90,0.00,,,0.00,,2013-03-19 07:21:00,
2013-03-19 02:32:00,8.0,6.0,29.89,NNW,338,11.0,18.0,90,0.00,,,0.00,,2013-03-19 07:32:00,
2013-03-19 02:42:00,8.0,6.0,29.89,NNW,338,11.0,18.0,90,0.00,,,0.00,,2013-03-19 07:42:00,
2013-03-19 02:52:00,8.0,6.0,29.89,North,352,2.0,19.0,90,0.00,,,0.00,,2013-03-19 07:52:00,
2013-03-19 03:02:00,8.0,6.0,29.90,North,11,5.0,19.0,90,0.00,,,0.00,,2013-03-19 08:02:00,
2013-03-19 03:12:00,8.0,6.0,29.90,North,11,5.0,19.0,90,0.00,,,0.00,,2013-03-19 08:12:00,
2013-03-19 03:22:00,7.0,5.0,29.90,NNW,345,11.0,17.0,90,0.00,,,0.00,,2013-03-19 08:22:00,
2013-03-19 03:32:00,8.0,6.0,29.91,North,11,4.0,12.0,90,0.00,,,0.00,,2013-03-19 08:32:00,
2013-03-19 03:42:00,8.0,6.0,29.91,North,11,4.0,12.0,90,0.00,,,0.00,,2013-03-19 08:42:00,
2013-03-19 03:52:00,7.0,5.0,29.91,North,4,5.0,14.0,90,0.00,,,0.00,,2013-03-19 08:52:00,
2013-03-19 04:02:00,7.0,4.0,29.91,NW,313,0.0,11.0,89,0.00,,,0.00,,2013-03-19 09:02:00,
2013-03-19 04:12:00,7.0,4.0,29.91,NW,313,0.0,11.0,89,0.00,,,0.00,,2013-03-19 09:12:00,
2013-03-19 04:22:00,7.0,4.0,29.92,NNE,29,3.0,10.0,89,0.00,,,0.00,,2013-03-19 09:22:00,
2013-03-19 04:32:00,7.0,4.0,29.93,North,351,3.0,18.0,89,0.00,,,0.00,,2013-03-19 09:32:00,
2013-03-19 04:42:00,7.0,4.0,29.93,North,351,3.0,18.0,89,0.00,,,0.00,,2013-03-19 09:42:00,
2013-03-19 04:53:00,7.0,4.0,29.93,North,358,1.0,15.0,89,0.00,,,0.00,,2013-03-19 09:53:00,
2013-03-19 05:03:00,6.0,3.0,29.94,NW,326,6.0,11.0,89,0.00,,,0.00,,2013-03-19 10:03:00,
2013-03-19 05:12:00,6.0,3.0,29.94,NW,326,6.0,11.0,89,0.00,,,0.00,,2013-03-19 10:12:00,
2013-03-19 05:23:00,7.0,4.0,29.95,NNW,338,6.0,10.0,89,0.00,,,0.00,,2013-03-19 10:23:00,
2013-03-19 05:32:00,7.0,4.0,29.96,NNW,333,0.0,12.0,88,0.00,,,0.00,,2013-03-19 10:32:00,
2013-03-19 05:42:00,7.0,4.0,29.96,NNW,333,0.0,12.0,88,0.00,,,0.00,,2013-03-19 10:42:00,
2013-03-19 06:02:00,6.0,3.0,29.96,North,358,8.0,17.0,88,0.00,,,0.00,,2013-03-19 11:02:00,
2013-03-19 06:12:00,6.0,3.0,29.96,North,358,8.0,17.0,88,0.00,,,0.00,,2013-03-19 11:12:00,
2013-03-19 06:22:00,6.0,3.0,29.95,NNE,15,5.0,10.0,88,0.00,,,0.00,,2013-03-19 11:22:00,
2013-03-19 06:32:00,6.0,3.0,29.96,West,279,0.0,10.0,89,0.00,,,0.00,,2013-03-19 11:32:00,
2013-03-19 06:42:00,6.0,3.0,29.96,West,279,0.0,10.0,89,0.00,,,0.00,,2013-03-19 11:42:00,
2013-03-19 06:52:00,5.0,2.0,29.97,North,350,6.0,10.0,89,0.00,,,0.00,,2013-03-19 11:52:00,
2013-03-19 07:02:00,5.0,2.0,29.98,WNW,296,10.0,13.0,89,0.00,,,0.00,,2013-03-19 12:02:00,
2013-03-19 07:12:00,5.0,2.0,29.99,North,358,0.0,11.0,89,0.00,,,0.00,,2013-03-19 12:12:00,
2013-03-19 07:22:00,5.0,2.0,29.99,North,358,0.0,11.0,89,0.00,,,0.00,,2013-03-19 12:22:00,
2013-03-19 07:32:00,4.0,2.0,30.00,NW,324,10.0,11.0,89,0.00,,,0.00,,2013-03-19 12:32:00,
2013-03-19 07:42:00,4.0,2.0,30.00,NW,324,10.0,11.0,89,0.00,,,0.00,,2013-03-19 12:42:00,
2013-03-19 07:52:00,3.0,1.0,30.01,North,355,8.0,15.0,89,0.00,,,0.00,,2013-03-19 12:52:00,
2013-03-19 08:02:00,3.0,0.0,30.02,NNW,334,7.0,11.0,88,0.00,,,0.00,,2013-03-19 13:02:00,
2013-03-19 08:12:00,3.0,0.0,30.02,NNW,334,7.0,11.0,88,0.00,,,0.00,,2013-03-19 13:12:00,
2013-03-19 08:22:00,5.0,2.0,30.03,NNW,347,10.0,10.0,87,0.00,,,0.00,,2013-03-19 13:22:00,
2013-03-19 08:32:00,5.0,2.0,30.03,NW,316,11.0,15.0,86,0.00,,,0.00,,2013-03-19 13:32:00,
2013-03-19 08:42:00,5.0,2.0,30.03,NW,316,11.0,15.0,86,0.00,,,0.00,,2013-03-19 13:42:00,
2013-03-19 08:52:00,4.0,1.0,30.03,NNW,347,7.0,16.0,85,0.00,,,0.00,,2013-03-19 13:52:00,
2013-03-19 09:02:00,6.0,2.0,30.05,SSW,199,7.0,10.0,84,0.00,,,0.00,,2013-03-19 14:02:00,
2013-03-19 09:12:00,6.0,2.0,30.05,SSW,199,7.0,10.0,84,0.00,,,0.00,,2013-03-19 14:12:00,
2013-03-19 09:22:00,6.0,2.0,30.05,North,351,4.0,11.0,83,0.00,,,0.00,,2013-03-19 14:22:00,
2013-03-19 09:32:00,7.0,3.0,30.06,WNW,303,5.0,14.0,82,0.00,,,0.00,,2013-03-19 14:32:00,
2013-03-19 09:42:00,7.0,3.0,30.06,WNW,303,5.0,14.0,82,0.00,,,0.00,,2013-03-19 14:42:00,
2013-03-19 09:52:00,8.0,3.0,30.07,NNW,340,11.0,11.0,81,0.00,,,0.00,,2013-03-19 14:52:00,
2013-03-19 10:02:00,9.0,4.0,30.07,NNE,12,8.0,13.0,79,0.00,,,0.00,,2013-03-19 15:02:00,
2013-03-19 10:12:00,9.0,4.0,30.07,NNE,12,8.0,13.0,79,0.00,,,0.00,,2013-03-19 15:12:00,
2013-03-19 10:22:00,9.0,4.0,30.08,North,351,7.0,10.0,79,0.00,,,0.00,,2013-03-19 15:22:00,
2013-03-19 10:33:00,11.0,6.0,30.09,North,358,9.0,11.0,79,0.00,,,0.00,,2013-03-19 15:33:00,
2013-03-19 10:43:00,11.0,6.0,30.09,North,358,9.0,11.0,79,0.00,,,0.00,,2013-03-19 15:43:00,
2013-03-19 10:53:00,11.0,6.0,30.09,NNE,32,4.0,15.0,78,0.00,,,0.00,,2013-03-19 15:53:00,
2013-03-19 11:03:00,11.0,5.0,30.09,NNW,341,12.0,16.0,77,0.00,,,0.00,,2013-03-19 16:03:00,
2013-03-19 11:13:00,11.0,5.0,30.09,NNW,341,12.0,16.0,77,0.00,,,0.00,,2013-03-19 16:13:00,
2013-03-19 11:23:00,12.0,6.0,30.09,NNW,329,4.0,15.0,77,0.00,,,0.00,,2013-03-19 16:23:00,
2013-03-19 11:34:00,12.0,6.0,30.09,WNW,293,11.0,14.0,77,0.00,,,0.00,,2013-03-19 16:34:00,
2013-03-19 11:43:00,12.0,6.0,30.09,WNW,293,11.0,14.0,77,0.00,,,0.00,,2013-03-19 16:43:00,
2013-03-19 11:54:00,13.0,7.0,30.10,North,9,12.0,13.0,76,0.00,,,0.00,,2013-03-19 16:54:00,
2013-03-19 12:03:00,14.0,8.0,30.10,NW,316,14.0,20.0,75,0.00,,,0.00,,2013-03-19 17:03:00,
2013-03-19 12:13:00,14.0,8.0,30.10,WSW,244,9.0,15.0,76,0.00,,,0.00,,2013-03-19 17:13:00,
2013-03-19 12:23:00,14.0,8.0,30.10,WSW,244,9.0,15.0,76,0.00,,,0.00,,2013-03-19 17:23:00,
2013-03-19 12:34:00,15.0,9.0,30.10,North,350,7.0,15.0,75,0.00,,,0.00,,2013-03-19 17:34:00,
2013-03-19 12:43:00,15.0,9.0,30.10,North,350,7.0,15.0,75,0.00,,,0.00,,2013-03-19 17:43:00,
2013-03-19 12:53:00,16.0,9.0,30.10,NNW,343,6.0,13.0,75,0.00,,,0.00,,2013-03-19 17:53:00,
2013-03-19 13:02:00,16.0,9.0,30.11,NNW,337,11.0,17.0,74,0.00,,,0.00,,2013-03-19 18:02:00,
2013-03-19 13:13:00,16.0,9.0,30.11,NNW,337,11.0,17.0,74,0.00,,,0.00,,2013-03-19 18:13:00,
2013-03-19 13:23:00,16.0,9.0,30.11,NNW,334,4.0,18.0,73,0.00,,,0.00,,2013-03-19 18:23:00,
2013-03-19 13:33:00,17.0,10.0,30.10,North,354,5.0,9.0,74,0.00,,,0.00,,2013-03-19 18:33:00,
2013-03-19 13:42:00,17.0,10.0,30.10,North,354,5.0,9.0,74,0.00,,,0.00,,2013-03-19 18:42:00,
2013-03-19 13:53:00,18.0,11.0,30.10,NNW,347,3.0,10.0,73,0.00,,,0.00,,2013-03-19 18:53:00,
2013-03-19 14:02:00,18.0,10.0,30.10,NE,47,3.0,15.0,71,0.00,,,0.00,,2013-03-19 19:02:00,
2013-03-19 14:12:00,18.0,10.0,30.10,NE,47,3.0,15.0,71,0.00,,,0.00,,2013-03-19 19:12:00,
2013-03-19 14:22:00,19.0,11.0,30.10,NE,37,5.0,13.0,71,0.00,,,0.00,,2013-03-19 19:22:00,
2013-03-19 14:32:00,19.0,11.0,30.10,North,1,10.0,19.0,70,0.00,,,0.00,,2013-03-19 19:32:00,
2013-03-19 14:42:00,19.0,11.0,30.10,North,1,10.0,19.0,70,0.00,,,0.00,,2013-03-19 19:42:00,
2013-03-19 14:52:00,19.0,11.0,30.10,North,358,3.0,13.0,70,0.00,,,0.00,,2013-03-19 19:52:00,
2013-03-19 15:02:00,20.0,11.0,30.10,NE,39,4.0,12.0,69,0.00,,,0.00,,2013-03-19 20:02:00,
2013-03-19 15:12:00,20.0,11.0,30.10,NNW,327,7.0,18.0,68,0.00,,,0.00,,2013-03-19 20:12:00,
2013-03-19 15:22:00,20.0,11.0,30.10,NNW,327,7.0,18.0,68,0.00,,,0.00,,2013-03-19 20:22:00,
2013-03-19 15:32:00,19.0,11.0,30.10,NNW,330,6.0,12.0,69,0.00,,,0.00,,2013-03-19 20:32:00,
2013-03-19 15:42:00,19.0,11.0,30.10,NNW,330,6.0,12.0,69,0.00,,,0.00,,2013-03-19 20:42:00,
2013-03-19 15:53:00,20.0,11.0,30.09,NNW,343,5.0,8.0,69,0.00,,,0.00,,2013-03-19 20:53:00,
2013-03-19 16:02:00,20.0,11.0,30.10,WNW,292,9.0,18.0,67,0.00,,,0.00,,2013-03-19 21:02:00,
2013-03-19 16:12:00,20.0,11.0,30.10,NNE,18,11.0,19.0,66,0.00,,,0.00,,2013-03-19 21:12:00,
2013-03-19 16:22:00,20.0,11.0,30.10,NNE,18,11.0,19.0,66,0.00,,,0.00,,2013-03-19 21:22:00,
2013-03-19 16:33:00,20.0,11.0,30.10,NNW,337,18.0,20.0,67,0.00,,,0.00,,2013-03-19 21:33:00,
2013-03-19 16:43:00,20.0,11.0,30.10,NNW,337,18.0,20.0,67,0.00,,,0.00,,2013-03-19 21:43:00,
2013-03-19 16:53:00,18.0,9.0,30.10,NNE,16,8.0,10.0,67,0.00,,,0.00,,2013-03-19 21:53:00,
2013-03-19 17:03:00,17.0,7.0,30.11,WNW,295,8.0,17.0,65,0.00,,,0.00,,2013-03-19 22:03:00,
2013-03-19 17:12:00,15.0,5.0,30.11,NNW,341,9.0,18.0,64,0.00,,,0.00,,2013-03-19 22:12:00,
2013-03-19 17:23:00,15.0,5.0,30.11,NNW,341,9.0,18.0,64,0.00,,,0.00,,2013-03-19 22:23:00,
2013-03-19 17:33:00,17.0,7.0,30.12,NNW,336,7.0,10.0,63,0.00,,,0.00,,2013-03-19 22:33:00,
2013-03-19 17:43:00,16.0,6.0,30.13,NNW,331,8.0,12.0,64,0.00,,,0.00,,2013-03-19 22:43:00,
2013-03-19 17:52:00,16.0,6.0,30.13,NNW,331,8.0,12.0,64,0.00,,,0.00,,2013-03-19 22:52:00,
2013-03-19 18:02:00,17.0,7.0,30.13,North,352,4.0,14.0,63,0.00,,,0.00,,2013-03-19 23:02:00,
2013-03-19 18:12:00,16.0,6.0,30.14,North,11,3.0,18.0,63,0.00,,,0.00,,2013-03-19 23:12:00,
2013-03-19 18:22:00,16.0,6.0,30.14,North,11,3.0,18.0,63,0.00,,,0.00,,2013-03-19 23:22:00,
2013-03-19 18:32:00,16.0,6.0,30.14,North,358,7.0,17.0,64,0.00,,,0.00,,2013-03-19 23:32:00,
2013-03-19 18:42:00,16.0,6.0,30.14,North,358,7.0,17.0,64,0.00,,,0.00,,2013-03-19 23:42:00,
2013-03-19 18:52:00,18.0,8.0,30.15,NNW,348,7.0,16.0,65,0.00,,,0.00,,2013-03-19 23:52:00,
2013-03-19 19:02:00,14.0,5.0,30.16,NW,323,13.0,16.0,68,0.00,,,0.00,,2013-03-20 00:02:00,
2013-03-19 19:12:00,14.0,5.0,30.16,NW,323,13.0,16.0,68,0.00,,,0.00,,2013-03-20 00:12:00,
2013-03-19 19:22:00,13.0,5.0,30.16,North,1,10.0,16.0,69,0.00,,,0.00,,2013-03-20 00:22:00,
2013-03-19 19:33:00,12.0,4.0,30.17,NNE,25,6.0,9.0,71,0.00,,,0.00,,2013-03-20 00:33:00,
2013-03-19 19:42:00,12.0,4.0,30.17,NNE,25,6.0,9.0,71,0.00,,,0.00,,2013-03-20 00:42:00,
2013-03-19 19:52:00,10.0,3.0,30.18,North,7,5.0,24.0,72,0.00,,,0.00,,2013-03-20 00:52:00,
2013-03-19 20:02:00,9.0,2.0,30.18,NW,316,8.0,18.0,73,0.00,,,0.00,,2013-03-20 01:02:00,
2013-03-19 20:12:00,9.0,2.0,30.19,North,350,5.0,12.0,74,0.00,,,0.00,,2013-03-20 01:12:00,
2013-03-19 20:22:00,9.0,2.0,30.19,North,350,5.0,12.0,74,0.00,,,0.00,,2013-03-20 01:22:00,
2013-03-19 20:32:00,9.0,3.0,30.19,NNW,336,11.0,11.0,75,0.00,,,0.00,,2013-03-20 01:32:00,
2013-03-19 20:42:00,9.0,3.0,30.19,NNW,336,11.0,11.0,75,0.00,,,0.00,,2013-03-20 01:42:00,
2013-03-19 20:52:00,8.0,2.0,30.20,North,2,13.0,18.0,75,0.00,,,0.00,,2013-03-20 01:52:00,
2013-03-19 21:02:00,9.0,3.0,30.21,NNW,327,0.0,12.0,76,0.00,,,0.00,,2013-03-20 02:02:00,
2013-03-19 21:12:00,9.0,3.0,30.21,NNW,327,0.0,12.0,76,0.00,,,0.00,,2013-03-20 02:12:00,
2013-03-19 21:22:00,8.0,2.0,30.21,NNW,348,9.0,14.0,76,0.00,,,0.00,,2013-03-20 02:22:00,
2013-03-19 21:32:00,8.0,2.0,30.21,North,9,5.0,11.0,77,0.00,,,0.00,,2013-03-20 02:32:00,
2013-03-19 21:42:00,8.0,2.0,30.21,North,9,5.0,11.0,77,0.00,,,0.00,,2013-03-20 02:42:00,
2013-03-19 21:53:00,8.0,3.0,30.22,North,358,8.0,12.0,78,0.00,,,0.00,,2013-03-20 02:53:00,
2013-03-19 22:02:00,7.0,2.0,30.21,NNW,333,11.0,16.0,78,0.00,,,0.00,,2013-03-20 03:02:00,
2013-03-19 22:12:00,7.0,2.0,30.21,North,2,10.0,14.0,78,0.00,,,0.00,,2013-03-20 03:12:00,
2013-03-19 22:22:00,7.0,2.0,30.21,North,2,10.0,14.0,78,0.00,,,0.00,,2013-03-20 03:22:00,
2013-03-19 22:33:00,7.0,2.0,30.22,NNE,12,5.0,10.0,78,0.00,,,0.00,,2013-03-20 03:33:00,
2013-03-19 22:42:00,7.0,2.0,30.22,NNE,12,5.0,10.0,78,0.00,,,0.00,,2013-03-20 03:42:00,
2013-03-19 22:53:00,7.0,1.0,30.22,North,358,6.0,12.0,76,0.00,,,0.00,,2013-03-20 03:53:00,
2013-03-19 23:03:00,9.0,3.0,30.22,NE,40,0.0,9.0,75,0.00,,,0.00,,2013-03-20 04:03:00,
2013-03-19 23:12:00,9.0,3.0,30.22,NE,40,0.0,9.0,75,0.00,,,0.00,,2013-03-20 04:12:00,
2013-03-19 23:22:00,7.0,1.0,30.22,NNE,18,4.0,14.0,75,0.00,,,0.00,,2013-03-20 04:22:00,
2013-03-19 23:32:00,7.0,1.0,30.22,WNW,302,5.0,15.0,75,0.00,,,0.00,,2013-03-20 04:32:00,
2013-03-19 23:43:00,7.0,1.0,30.22,WNW,302,5.0,15.0,75,0.00,,,0.00,,2013-03-20 04:43:00,
2013-03-19 23:52:00,7.0,1.0,30.23,NNW,334,8.0,14.0,76,0.00,,,0.00,,2013-03-20 04:52:00,